Time,TemperatureF,DewpointF,PressureIn,WindDirection,WindDirectionDegrees,WindSpeedMPH,WindSpeedGustMPH,Humidity,HourlyPrecipIn,Conditions,Clouds,dailyrainin,SoftwareType,DateUTC
2013-02-11 00:01:00,69.8,62.3,29.50,SW,225,2.3,0.0,77,0.00,RA,OVC,0.00,WeatherDisplay:10.37,2013-02-10 13:01:00,
2013-02-11 00:06:00,70.0,62.4,29.50,South,180,2.3,0.0,77,0.00,RA,OVC,0.00,WeatherDisplay:10.37,2013-02-10 13:06:00,
2013-02-11 00:11:00,70.0,62.4,29.50,West,270,0.0,0.0,77,0.00,CLR,OVC,0.00,WeatherDisplay:10.37,2013-02-10 13:11:00,
2013-02-11 00:16:00,70.0,62.8,29.47,North,0,0.0,0.0,78,0.00,CLR,OVC,0.00,WeatherDisplay:10.37,2013-02-10 13:16:00,
2013-02-11 00:21:00,69.8,62.3,29.47,WSW,248,1.2,0.0,77,0.00,CLR,OVC,0.00,WeatherDisplay:10.37,2013-02-10 13:21:00,
2013-02-11 00:26:00,69.8,62.3,29.47,WSW,248,0.0,0.0,77,0.00,CLR,OVC,0.00,WeatherDisplay:10.37,2013-02-10 13:26:00,
2013-02-11 00:31:00,69.8,62.3,29.53,NNW,338,0.0,0.0,77,0.00,CLR,OVC,0.00,WeatherDisplay:10.37,2013-02-10 13:31:00,
2013-02-11 00:36:00,69.8,62.6,29.53,WNW,292,0.0,0.0,78,0.00,CLR,OVC,0.00,WeatherDisplay:10.37,2013-02-10 13:36:00,
2013-02-11 00:41:00,69.6,62.5,29.53,West,270,0.0,0.0,78,0.00,CLR,OVC,0.00,WeatherDisplay:10.37,2013-02-10 13:41:00,
2013-02-11 00:46:00,69.6,62.5,29.50,West,270,6.9,0.0,78,0.00,CLR,OVC,0.00,WeatherDisplay:10.37,2013-02-10 13:46:00,
2013-02-11 00:51:00,69.6,62.5,29.50,West,270,2.3,2.3,78,0.00,CLR,OVC,0.00,WeatherDisplay:10.37,2013-02-10 13:51:00,
2013-02-11 00:56:00,69.6,62.5,29.50,West,270,0.0,0.0,78,0.00,CLR,OVC,0.00,WeatherDisplay:10.37,2013-02-10 13:56:00,
2013-02-11 01:01:00,69.8,62.6,29.53,South,180,0.0,0.0,78,0.04,RA,OVC,0.04,WeatherDisplay:10.37,2013-02-10 14:01:00,
2013-02-11 01:06:00,69.8,62.6,29.53,WSW,248,0.0,0.0,78,0.04,RA,OVC,0.04,WeatherDisplay:10.37,2013-02-10 14:06:00,
2013-02-11 01:11:00,70.0,62.8,29.53,SE,135,0.0,0.0,78,0.04,CLR,OVC,0.04,WeatherDisplay:10.37,2013-02-10 14:11:00,
2013-02-11 01:16:00,70.0,62.8,29.50,East,90,0.0,0.0,78,0.04,CLR,OVC,0.04,WeatherDisplay:10.37,2013-02-10 14:16:00,
2013-02-11 01:21:00,69.8,62.6,29.50,NE,45,0.0,0.0,78,0.04,CLR,OVC,0.04,WeatherDisplay:10.37,2013-02-10 14:21:00,
2013-02-11 01:26:00,69.8,62.6,29.50,South,180,0.0,0.0,78,0.04,CLR,OVC,0.04,WeatherDisplay:10.37,2013-02-10 14:26:00,
2013-02-11 01:31:00,70.0,63.2,29.50,NE,45,0.0,0.0,79,0.04,CLR,OVC,0.04,WeatherDisplay:10.37,2013-02-10 14:31:00,
2013-02-11 01:36:00,69.6,62.8,29.50,ESE,112,0.0,0.0,79,0.04,CLR,OVC,0.04,WeatherDisplay:10.37,2013-02-10 14:36:00,
2013-02-11 01:41:00,69.6,62.8,29.50,East,90,1.2,0.0,79,0.04,CLR,OVC,0.04,WeatherDisplay:10.37,2013-02-10 14:41:00,
2013-02-11 01:46:00,69.4,62.6,29.50,ESE,112,1.2,0.0,79,0.04,CLR,OVC,0.04,WeatherDisplay:10.37,2013-02-10 14:46:00,
2013-02-11 01:51:00,69.4,62.6,29.50,ESE,112,0.0,0.0,79,0.04,CLR,OVC,0.04,WeatherDisplay:10.37,2013-02-10 14:51:00,
2013-02-11 01:56:00,69.3,62.5,29.50,ESE,112,0.0,0.0,79,0.04,CLR,OVC,0.04,WeatherDisplay:10.37,2013-02-10 14:56:00,
2013-02-11 02:01:00,69.3,62.5,29.50,South,180,0.0,0.0,79,0.00,CLR,OVC,0.04,WeatherDisplay:10.37,2013-02-10 15:01:00,
2013-02-11 02:06:00,69.4,62.6,29.50,SSE,158,0.0,0.0,79,0.00,CLR,OVC,0.04,WeatherDisplay:10.37,2013-02-10 15:06:00,
2013-02-11 02:11:00,69.3,62.1,29.50,SE,135,0.0,0.0,78,0.00,CLR,OVC,0.04,WeatherDisplay:10.37,2013-02-10 15:11:00,
2013-02-11 02:16:00,69.4,62.3,29.50,SE,135,0.0,0.0,78,0.00,CLR,OVC,0.04,WeatherDisplay:10.37,2013-02-10 15:16:00,
2013-02-11 02:21:00,69.4,62.6,29.50,SW,225,0.0,0.0,79,0.00,CLR,OVC,0.04,WeatherDisplay:10.37,2013-02-10 15:21:00,
2013-02-11 02:27:00,69.4,62.6,29.50,ENE,68,0.0,0.0,79,0.00,CLR,OVC,0.04,WeatherDisplay:10.37,2013-02-10 15:27:00,
2013-02-11 02:31:00,69.3,62.5,29.50,West,270,0.0,0.0,79,0.00,CLR,OVC,0.04,WeatherDisplay:10.37,2013-02-10 15:31:00,
2013-02-11 02:36:00,69.3,62.5,29.50,East,90,0.0,0.0,79,0.00,CLR,OVC,0.04,WeatherDisplay:10.37,2013-02-10 15:36:00,
2013-02-11 02:42:00,69.3,62.8,29.50,ENE,68,0.0,0.0,80,0.00,CLR,OVC,0.04,WeatherDisplay:10.37,2013-02-10 15:42:00,
2013-02-11 02:46:00,69.1,62.6,29.47,NNE,22,0.0,0.0,80,0.00,CLR,OVC,0.04,WeatherDisplay:10.37,2013-02-10 15:46:00,
2013-02-11 02:52:00,69.1,62.3,29.47,WNW,292,0.0,0.0,79,0.00,CLR,OVC,0.04,WeatherDisplay:10.37,2013-02-10 15:52:00,
2013-02-11 02:56:00,68.9,62.5,29.47,NE,45,0.0,0.0,80,0.00,CLR,OVC,0.04,WeatherDisplay:10.37,2013-02-10 15:56:00,
2013-02-11 03:01:00,68.9,62.8,29.50,NNE,22,0.0,0.0,81,0.00,CLR,OVC,0.04,WeatherDisplay:10.37,2013-02-10 16:01:00,
2013-02-11 03:06:00,68.9,62.8,29.50,NW,315,0.0,0.0,81,0.00,CLR,OVC,0.04,WeatherDisplay:10.37,2013-02-10 16:06:00,
2013-02-11 03:11:00,68.9,62.5,29.50,WNW,292,0.0,0.0,80,0.00,CLR,OVC,0.04,WeatherDisplay:10.37,2013-02-10 16:11:00,
2013-02-11 03:16:00,68.9,62.5,29.47,WNW,292,0.0,0.0,80,0.00,CLR,OVC,0.04,WeatherDisplay:10.37,2013-02-10 16:16:00,
2013-02-11 03:22:00,69.1,62.6,29.47,WNW,292,0.0,0.0,80,0.00,CLR,OVC,0.04,WeatherDisplay:10.37,2013-02-10 16:22:00,
2013-02-11 03:27:00,69.3,62.8,29.47,WNW,292,0.0,0.0,80,0.00,CLR,OVC,0.04,WeatherDisplay:10.37,2013-02-10 16:27:00,
2013-02-11 03:32:00,69.3,62.8,29.50,ESE,112,0.0,0.0,80,0.00,CLR,OVC,0.04,WeatherDisplay:10.37,2013-02-10 16:32:00,
2013-02-11 03:37:00,69.3,63.2,29.50,NNW,338,0.0,0.0,81,0.00,CLR,OVC,0.04,WeatherDisplay:10.37,2013-02-10 16:37:00,
2013-02-11 03:42:00,69.3,62.8,29.50,NNW,338,0.0,0.0,80,0.00,CLR,OVC,0.04,WeatherDisplay:10.37,2013-02-10 16:42:00,
2013-02-11 03:47:00,69.1,63.0,29.50,NNW,338,0.0,0.0,81,0.00,CLR,OVC,0.04,WeatherDisplay:10.37,2013-02-10 16:47:00,
2013-02-11 03:52:00,69.1,63.0,29.50,NNW,338,0.0,0.0,81,0.00,CLR,OVC,0.04,WeatherDisplay:10.37,2013-02-10 16:52:00,
2013-02-11 03:57:00,68.9,62.8,29.50,West,270,0.0,0.0,81,0.00,CLR,OVC,0.04,WeatherDisplay:10.37,2013-02-10 16:57:00,
2013-02-11 04:02:00,68.9,62.8,29.47,SW,225,0.0,0.0,81,0.00,CLR,OVC,0.04,WeatherDisplay:10.37,2013-02-10 17:02:00,
2013-02-11 04:07:00,68.7,62.3,29.47,SSE,158,0.0,0.0,80,0.00,CLR,OVC,0.04,WeatherDisplay:10.37,2013-02-10 17:07:00,
2013-02-11 04:12:00,68.7,61.9,29.47,West,270,1.6,0.0,79,0.00,CLR,OVC,0.04,WeatherDisplay:10.37,2013-02-10 17:12:00,
2013-02-11 04:17:00,68.7,62.3,29.50,West,270,1.4,1.4,80,0.00,CLR,OVC,0.04,WeatherDisplay:10.37,2013-02-10 17:17:00,
2013-02-11 04:22:00,68.7,62.3,29.50,West,270,1.2,1.2,80,0.00,CLR,OVC,0.04,WeatherDisplay:10.37,2013-02-10 17:22:00,
2013-02-11 04:27:00,68.7,62.3,29.50,NE,45,0.0,0.0,80,0.00,CLR,OVC,0.04,WeatherDisplay:10.37,2013-02-10 17:27:00,
2013-02-11 04:32:00,68.5,62.1,29.47,West,270,2.3,2.3,80,0.00,CLR,OVC,0.04,WeatherDisplay:10.37,2013-02-10 17:32:00,
2013-02-11 04:37:00,68.5,62.5,29.47,West,270,0.0,0.0,81,0.00,CLR,OVC,0.04,WeatherDisplay:10.37,2013-02-10 17:37:00,
2013-02-11 04:42:00,68.4,62.3,29.47,SSE,158,0.0,0.0,81,0.00,CLR,OVC,0.04,WeatherDisplay:10.37,2013-02-10 17:42:00,
2013-02-11 04:47:00,68.4,62.3,29.47,West,270,0.0,0.0,81,0.00,CLR,OVC,0.04,WeatherDisplay:10.37,2013-02-10 17:47:00,
2013-02-11 04:52:00,68.2,62.1,29.47,West,270,0.0,0.0,81,0.00,CLR,OVC,0.04,WeatherDisplay:10.37,2013-02-10 17:52:00,
2013-02-11 04:57:00,68.2,62.1,29.47,SSE,158,0.0,0.0,81,0.00,CLR,OVC,0.04,WeatherDisplay:10.37,2013-02-10 17:57:00,
2013-02-11 05:02:00,68.0,62.3,29.47,North,0,0.0,0.0,82,0.00,CLR,OVC,0.04,WeatherDisplay:10.37,2013-02-10 18:02:00,
2013-02-11 05:07:00,68.0,61.9,29.47,WNW,292,0.0,0.0,81,0.00,CLR,OVC,0.04,WeatherDisplay:10.37,2013-02-10 18:07:00,
2013-02-11 05:12:00,68.0,61.9,29.47,SSE,158,0.0,0.0,81,0.00,CLR,OVC,0.04,WeatherDisplay:10.37,2013-02-10 18:12:00,
2013-02-11 05:17:00,68.0,61.9,29.47,West,270,0.0,0.0,81,0.00,CLR,OVC,0.04,WeatherDisplay:10.37,2013-02-10 18:17:00,
2013-02-11 05:22:00,68.0,61.9,29.47,SW,225,0.0,0.0,81,0.00,CLR,OVC,0.04,WeatherDisplay:10.37,2013-02-10 18:22:00,
2013-02-11 05:27:00,67.8,62.1,29.47,WNW,292,0.0,0.0,82,0.00,CLR,OVC,0.04,WeatherDisplay:10.37,2013-02-10 18:27:00,
2013-02-11 05:32:00,68.0,62.3,29.47,West,270,0.0,0.0,82,0.00,CLR,OVC,0.04,WeatherDisplay:10.37,2013-02-10 18:32:00,
2013-02-11 05:37:00,68.0,62.3,29.47,WNW,292,1.2,0.0,82,0.00,CLR,OVC,0.04,WeatherDisplay:10.37,2013-02-10 18:37:00,
2013-02-11 05:42:00,68.0,62.3,29.47,WNW,292,0.0,0.0,82,0.00,CLR,OVC,0.04,WeatherDisplay:10.37,2013-02-10 18:42:00,
2013-02-11 05:47:00,68.0,62.6,29.47,WNW,292,0.0,0.0,83,0.00,CLR,OVC,0.04,WeatherDisplay:10.37,2013-02-10 18:47:00,
2013-02-11 05:52:00,68.2,62.8,29.47,WNW,292,0.0,0.0,83,0.00,CLR,OVC,0.04,WeatherDisplay:10.37,2013-02-10 18:52:00,
2013-02-11 05:57:00,68.2,62.8,29.47,SW,225,0.0,0.0,83,0.00,CLR,OVC,0.04,WeatherDisplay:10.37,2013-02-10 18:57:00,
2013-02-11 06:02:00,68.2,62.8,29.47,West,270,2.3,2.3,83,0.00,CLR,OVC,0.04,WeatherDisplay:10.37,2013-02-10 19:02:00,
2013-02-11 06:07:00,68.2,62.5,29.47,WNW,292,1.2,1.2,82,0.00,CLR,OVC,0.04,WeatherDisplay:10.37,2013-02-10 19:07:00,
2013-02-11 06:12:00,68.2,62.8,29.47,West,270,0.0,0.0,83,0.00,CLR,OVC,0.04,WeatherDisplay:10.37,2013-02-10 19:12:00,
2013-02-11 06:17:00,68.4,62.6,29.47,WNW,292,0.9,0.0,82,0.00,CLR,OVC,0.04,WeatherDisplay:10.37,2013-02-10 19:17:00,
2013-02-11 06:22:00,68.4,62.6,29.47,West,270,0.0,0.0,82,0.00,CLR,OVC,0.04,WeatherDisplay:10.37,2013-02-10 19:22:00,
2013-02-11 06:27:00,68.4,63.0,29.47,West,270,1.2,0.0,83,0.00,CLR,OVC,0.04,WeatherDisplay:10.37,2013-02-10 19:27:00,
2013-02-11 06:32:00,68.4,62.6,29.44,West,270,0.0,0.0,82,0.00,CLR,OVC,0.04,WeatherDisplay:10.37,2013-02-10 19:32:00,
2013-02-11 06:37:00,68.4,63.0,29.44,West,270,0.0,0.0,83,0.00,CLR,OVC,0.04,WeatherDisplay:10.37,2013-02-10 19:37:00,
2013-02-11 06:42:00,68.5,62.8,29.44,West,270,0.0,0.0,82,0.00,CLR,OVC,0.04,WeatherDisplay:10.37,2013-02-10 19:42:00,
2013-02-11 06:47:00,68.5,62.8,29.47,West,270,3.5,3.5,82,0.00,CLR,OVC,0.04,WeatherDisplay:10.37,2013-02-10 19:47:00,
2013-02-11 06:52:00,68.5,62.5,29.47,WNW,292,2.4,0.0,81,0.00,CLR,OVC,0.04,WeatherDisplay:10.37,2013-02-10 19:52:00,
2013-02-11 06:57:00,68.5,62.5,29.47,West,270,0.0,0.0,81,0.00,CLR,OVC,0.04,WeatherDisplay:10.37,2013-02-10 19:57:00,
2013-02-11 07:02:00,68.7,62.7,29.47,WNW,292,3.5,3.5,81,0.00,CLR,OVC,0.04,WeatherDisplay:10.37,2013-02-10 20:02:00,
2013-02-11 07:07:00,68.7,62.7,29.47,WNW,292,2.6,0.0,81,0.00,CLR,OVC,0.04,WeatherDisplay:10.37,2013-02-10 20:07:00,
2013-02-11 07:12:00,68.9,62.8,29.47,West,270,3.5,3.5,81,0.00,CLR,OVC,0.04,WeatherDisplay:10.37,2013-02-10 20:12:00,
2013-02-11 07:17:00,69.1,63.0,29.47,NW,315,2.4,2.4,81,0.00,CLR,OVC,0.04,WeatherDisplay:10.37,2013-02-10 20:17:00,
2013-02-11 07:22:00,69.3,63.5,29.47,WNW,292,3.5,0.0,82,0.00,CLR,OVC,0.04,WeatherDisplay:10.37,2013-02-10 20:22:00,
2013-02-11 07:27:00,69.3,63.5,29.47,West,270,2.3,2.3,82,0.00,CLR,OVC,0.04,WeatherDisplay:10.37,2013-02-10 20:27:00,
2013-02-11 07:32:00,69.4,64.0,29.50,WNW,292,0.0,0.0,83,0.00,CLR,OVC,0.04,WeatherDisplay:10.37,2013-02-10 20:32:00,
2013-02-11 07:37:00,69.4,64.0,29.50,West,270,1.2,0.0,83,0.00,CLR,OVC,0.04,WeatherDisplay:10.37,2013-02-10 20:37:00,
2013-02-11 07:42:00,69.4,64.0,29.50,NNW,338,0.0,0.0,83,0.00,CLR,OVC,0.04,WeatherDisplay:10.37,2013-02-10 20:42:00,
2013-02-11 07:47:00,69.3,63.9,29.50,West,270,2.3,2.3,83,0.00,CLR,OVC,0.04,WeatherDisplay:10.37,2013-02-10 20:47:00,
2013-02-11 07:52:00,69.4,63.7,29.50,West,270,0.0,0.0,82,0.00,CLR,OVC,0.04,WeatherDisplay:10.37,2013-02-10 20:52:00,
2013-02-11 07:57:00,69.6,63.9,29.50,West,270,2.3,0.0,82,0.00,CLR,OVC,0.04,WeatherDisplay:10.37,2013-02-10 20:57:00,
2013-02-11 08:02:00,69.6,63.9,29.50,West,270,0.9,0.0,82,0.00,CLR,OVC,0.04,WeatherDisplay:10.37,2013-02-10 21:02:00,
2013-02-11 08:07:00,69.6,63.9,29.50,SE,135,0.0,0.0,82,0.00,CLR,OVC,0.04,WeatherDisplay:10.37,2013-02-10 21:07:00,
2013-02-11 08:12:00,69.4,63.7,29.50,NE,45,0.0,0.0,82,0.00,CLR,OVC,0.04,WeatherDisplay:10.37,2013-02-10 21:12:00,
2013-02-11 08:17:00,69.6,63.9,29.50,SSW,202,0.0,0.0,82,0.00,CLR,OVC,0.04,WeatherDisplay:10.37,2013-02-10 21:17:00,
2013-02-11 08:22:00,69.6,63.9,29.50,WNW,292,0.0,0.0,82,0.00,CLR,OVC,0.04,WeatherDisplay:10.37,2013-02-10 21:22:00,
2013-02-11 08:27:00,69.6,63.9,29.50,WNW,292,1.4,0.0,82,0.00,CLR,OVC,0.04,WeatherDisplay:10.37,2013-02-10 21:27:00,
2013-02-11 08:32:00,69.6,63.9,29.50,ESE,112,2.3,2.3,82,0.00,CLR,OVC,0.04,WeatherDisplay:10.37,2013-02-10 21:32:00,
2013-02-11 08:37:00,69.6,63.5,29.50,NW,315,3.5,3.5,81,0.00,CLR,OVC,0.04,WeatherDisplay:10.37,2013-02-10 21:37:00,
2013-02-11 08:42:00,69.4,63.4,29.50,ESE,112,1.2,0.0,81,0.00,CLR,OVC,0.04,WeatherDisplay:10.37,2013-02-10 21:42:00,
2013-02-11 08:47:00,69.6,63.5,29.50,ENE,68,0.0,0.0,81,0.00,CLR,OVC,0.04,WeatherDisplay:10.37,2013-02-10 21:47:00,
2013-02-11 08:52:00,69.6,63.9,29.50,West,270,2.3,0.0,82,0.00,CLR,OVC,0.04,WeatherDisplay:10.37,2013-02-10 21:52:00,
2013-02-11 08:57:00,69.6,63.5,29.50,WNW,292,0.0,0.0,81,0.00,CLR,OVC,0.04,WeatherDisplay:10.37,2013-02-10 21:57:00,
2013-02-11 09:02:00,69.6,63.9,29.50,WNW,292,0.0,0.0,82,0.00,CLR,OVC,0.04,WeatherDisplay:10.37,2013-02-10 22:02:00,
2013-02-11 09:07:00,69.8,63.7,29.50,SW,225,0.0,0.0,81,0.00,CLR,OVC,0.04,WeatherDisplay:10.37,2013-02-10 22:07:00,
2013-02-11 09:12:00,69.8,63.7,29.50,WNW,292,1.2,0.0,81,0.00,CLR,OVC,0.04,WeatherDisplay:10.37,2013-02-10 22:12:00,
2013-02-11 09:17:00,69.8,63.3,29.50,East,90,0.0,0.0,80,0.00,CLR,OVC,0.04,WeatherDisplay:10.37,2013-02-10 22:17:00,
2013-02-11 09:22:00,69.8,63.7,29.50,WNW,292,2.3,2.3,81,0.00,CLR,OVC,0.04,WeatherDisplay:10.37,2013-02-10 22:22:00,
2013-02-11 09:27:00,69.6,63.5,29.50,WNW,292,0.0,0.0,81,0.00,CLR,OVC,0.04,WeatherDisplay:10.37,2013-02-10 22:27:00,
2013-02-11 09:32:00,69.8,63.7,29.50,SSW,202,0.0,0.0,81,0.00,CLR,OVC,0.04,WeatherDisplay:10.37,2013-02-10 22:32:00,
2013-02-11 09:37:00,69.8,63.3,29.50,WNW,292,0.0,0.0,80,0.00,CLR,OVC,0.04,WeatherDisplay:10.37,2013-02-10 22:37:00,
2013-02-11 09:42:00,69.8,63.3,29.50,West,270,0.0,0.0,80,0.00,CLR,OVC,0.04,WeatherDisplay:10.37,2013-02-10 22:42:00,
2013-02-11 09:47:00,69.8,63.7,29.50,WSW,248,0.0,0.0,81,0.00,CLR,OVC,0.04,WeatherDisplay:10.37,2013-02-10 22:47:00,
2013-02-11 09:52:00,69.8,63.3,29.50,WNW,292,0.0,0.0,80,0.00,CLR,OVC,0.04,WeatherDisplay:10.37,2013-02-10 22:52:00,
2013-02-11 09:57:00,69.8,63.3,29.50,NW,315,0.0,0.0,80,0.00,CLR,OVC,0.04,WeatherDisplay:10.37,2013-02-10 22:57:00,
2013-02-11 10:02:00,69.8,63.7,29.50,NNW,338,0.0,0.0,81,0.00,CLR,OVC,0.04,WeatherDisplay:10.37,2013-02-10 23:02:00,
2013-02-11 10:07:00,69.8,63.3,29.50,West,270,0.0,0.0,80,0.00,CLR,OVC,0.04,WeatherDisplay:10.37,2013-02-10 23:07:00,
2013-02-11 10:12:00,70.0,63.5,29.50,NW,315,0.0,0.0,80,0.00,CLR,OVC,0.04,WeatherDisplay:10.37,2013-02-10 23:12:00,
2013-02-11 10:17:00,70.0,63.5,29.53,WNW,292,0.0,0.0,80,0.00,CLR,OVC,0.04,WeatherDisplay:10.37,2013-02-10 23:17:00,
2013-02-11 10:22:00,70.0,63.5,29.53,WNW,292,2.0,2.0,80,0.00,CLR,OVC,0.04,WeatherDisplay:10.37,2013-02-10 23:22:00,
2013-02-11 10:27:00,70.2,64.1,29.53,NNE,22,0.0,0.0,81,0.00,CLR,OVC,0.04,WeatherDisplay:10.37,2013-02-10 23:27:00,
2013-02-11 10:32:00,70.3,64.2,29.53,WSW,248,2.2,2.2,81,0.00,CLR,OVC,0.04,WeatherDisplay:10.37,2013-02-10 23:32:00,
2013-02-11 10:37:00,70.3,63.9,29.53,WNW,292,2.3,0.0,80,0.00,CLR,OVC,0.04,WeatherDisplay:10.37,2013-02-10 23:37:00,
2013-02-11 10:42:00,70.3,63.9,29.53,NNE,22,0.0,0.0,80,0.00,CLR,OVC,0.04,WeatherDisplay:10.37,2013-02-10 23:42:00,
2013-02-11 10:47:00,70.3,63.9,29.53,WNW,292,2.3,0.0,80,0.00,CLR,OVC,0.04,WeatherDisplay:10.37,2013-02-10 23:47:00,
2013-02-11 10:52:00,70.3,63.9,29.53,NW,315,0.0,0.0,80,0.00,CLR,OVC,0.04,WeatherDisplay:10.37,2013-02-10 23:52:00,
2013-02-11 10:57:00,70.3,63.5,29.53,SW,225,0.0,0.0,79,0.00,CLR,OVC,0.04,WeatherDisplay:10.37,2013-02-10 23:57:00,
2013-02-11 11:02:00,70.2,63.3,29.53,SSW,202,1.2,0.0,79,0.00,CLR,OVC,0.04,WeatherDisplay:10.37,2013-02-11 00:02:00,
2013-02-11 11:07:00,70.2,63.3,29.53,SE,135,0.0,0.0,79,0.00,CLR,OVC,0.04,WeatherDisplay:10.37,2013-02-11 00:07:00,
2013-02-11 11:12:00,70.3,63.5,29.53,NNW,338,0.0,0.0,79,0.00,CLR,OVC,0.04,WeatherDisplay:10.37,2013-02-11 00:12:00,
2013-02-11 11:17:00,70.3,63.5,29.53,SSW,202,0.0,0.0,79,0.00,CLR,OVC,0.04,WeatherDisplay:10.37,2013-02-11 00:17:00,
2013-02-11 11:23:00,70.2,63.3,29.53,NE,45,3.5,3.5,79,0.00,CLR,OVC,0.04,WeatherDisplay:10.37,2013-02-11 00:23:00,
2013-02-11 11:28:00,70.3,63.5,29.53,WNW,292,0.0,0.0,79,0.00,CLR,OVC,0.04,WeatherDisplay:10.37,2013-02-11 00:28:00,
2013-02-11 11:33:00,70.5,64.0,29.53,SSW,202,0.0,0.0,80,0.00,CLR,OVC,0.04,WeatherDisplay:10.37,2013-02-11 00:33:00,
2013-02-11 11:38:00,70.7,63.9,29.53,NNW,338,0.0,0.0,79,0.00,CLR,OVC,0.04,WeatherDisplay:10.37,2013-02-11 00:38:00,
2013-02-11 11:43:00,70.5,63.7,29.53,NNE,22,0.0,0.0,79,0.00,CLR,OVC,0.04,WeatherDisplay:10.37,2013-02-11 00:43:00,
2013-02-11 11:48:00,70.5,63.3,29.53,NNE,22,2.0,0.0,78,0.00,CLR,OVC,0.04,WeatherDisplay:10.37,2013-02-11 00:48:00,
2013-02-11 11:53:00,70.3,63.2,29.53,NW,315,3.8,0.0,78,0.00,CLR,OVC,0.04,WeatherDisplay:10.37,2013-02-11 00:53:00,
2013-02-11 11:58:00,70.3,63.2,29.53,NW,315,0.0,0.0,78,0.00,CLR,OVC,0.04,WeatherDisplay:10.37,2013-02-11 00:58:00,
2013-02-11 12:03:00,70.5,63.7,29.53,West,270,0.0,0.0,79,0.00,CLR,OVC,0.04,WeatherDisplay:10.37,2013-02-11 01:03:00,
2013-02-11 12:08:00,70.7,63.9,29.53,WNW,292,0.0,0.0,79,0.00,CLR,OVC,0.04,WeatherDisplay:10.37,2013-02-11 01:08:00,
2013-02-11 12:13:00,70.9,64.0,29.53,NNW,338,3.5,0.0,79,0.00,CLR,OVC,0.04,WeatherDisplay:10.37,2013-02-11 01:13:00,
2013-02-11 12:18:00,70.7,63.9,29.50,NNW,338,0.0,0.0,79,0.00,CLR,OVC,0.04,WeatherDisplay:10.37,2013-02-11 01:18:00,
2013-02-11 12:23:00,70.9,64.0,29.50,WNW,292,1.2,0.0,79,0.00,CLR,OVC,0.04,WeatherDisplay:10.37,2013-02-11 01:23:00,
2013-02-11 12:28:00,70.9,64.0,29.50,NNE,22,0.0,0.0,79,0.00,CLR,OVC,0.04,WeatherDisplay:10.37,2013-02-11 01:28:00,
2013-02-11 12:33:00,70.9,64.0,29.50,WNW,292,0.0,0.0,79,0.00,CLR,OVC,0.04,WeatherDisplay:10.37,2013-02-11 01:33:00,
2013-02-11 12:38:00,70.9,64.0,29.50,SE,135,2.3,0.0,79,0.00,CLR,OVC,0.04,WeatherDisplay:10.37,2013-02-11 01:38:00,
2013-02-11 12:43:00,70.9,64.0,29.50,North,0,2.3,2.3,79,0.00,CLR,OVC,0.04,WeatherDisplay:10.37,2013-02-11 01:43:00,
2013-02-11 12:48:00,70.9,64.0,29.50,NNW,338,0.0,0.0,79,0.00,CLR,OVC,0.04,WeatherDisplay:10.37,2013-02-11 01:48:00,
2013-02-11 12:53:00,71.2,64.4,29.50,NNE,22,0.0,0.0,79,0.00,CLR,OVC,0.04,WeatherDisplay:10.37,2013-02-11 01:53:00,
2013-02-11 12:58:00,71.4,64.6,29.50,West,270,0.0,0.0,79,0.00,CLR,OVC,0.04,WeatherDisplay:10.37,2013-02-11 01:58:00,
2013-02-11 13:03:00,71.6,64.4,29.47,NNE,22,0.0,0.0,78,0.00,CLR,OVC,0.04,WeatherDisplay:10.37,2013-02-11 02:03:00,
2013-02-11 13:08:00,71.8,64.5,29.47,NNE,22,3.5,3.5,78,0.00,CLR,OVC,0.04,WeatherDisplay:10.37,2013-02-11 02:08:00,
2013-02-11 13:13:00,72.0,64.7,29.47,SE,135,1.2,0.0,78,0.00,CLR,OVC,0.04,WeatherDisplay:10.37,2013-02-11 02:13:00,
2013-02-11 13:18:00,72.1,64.9,29.50,ENE,68,0.0,0.0,78,0.00,CLR,OVC,0.04,WeatherDisplay:10.37,2013-02-11 02:18:00,
2013-02-11 13:23:00,72.1,64.5,29.50,NNE,22,2.3,2.3,77,0.00,CLR,OVC,0.04,WeatherDisplay:10.37,2013-02-11 02:23:00,
2013-02-11 13:28:00,71.8,63.8,29.50,SE,135,2.3,2.3,76,0.00,CLR,OVC,0.04,WeatherDisplay:10.37,2013-02-11 02:28:00,
2013-02-11 13:33:00,72.0,64.4,29.50,ENE,68,3.5,3.5,77,0.00,CLR,OVC,0.04,WeatherDisplay:10.37,2013-02-11 02:33:00,
2013-02-11 13:38:00,72.0,64.0,29.50,SSW,202,4.6,4.6,76,0.00,CLR,OVC,0.04,WeatherDisplay:10.37,2013-02-11 02:38:00,
2013-02-11 13:43:00,72.0,64.0,29.50,WNW,292,0.0,0.0,76,0.00,CLR,OVC,0.04,WeatherDisplay:10.37,2013-02-11 02:43:00,
2013-02-11 13:48:00,72.0,64.4,29.50,NNW,338,1.2,0.0,77,0.00,CLR,OVC,0.04,WeatherDisplay:10.37,2013-02-11 02:48:00,
2013-02-11 13:53:00,72.0,64.4,29.50,West,270,3.1,3.1,77,0.00,CLR,OVC,0.04,WeatherDisplay:10.37,2013-02-11 02:53:00,
2013-02-11 13:58:00,72.0,64.0,29.50,NE,45,0.0,0.0,76,0.00,CLR,OVC,0.04,WeatherDisplay:10.37,2013-02-11 02:58:00,
2013-02-11 14:03:00,72.1,64.5,29.50,NNE,22,2.3,2.3,77,0.00,CLR,OVC,0.04,WeatherDisplay:10.37,2013-02-11 03:03:00,
2013-02-11 14:08:00,72.0,64.4,29.50,NE,45,0.0,0.0,77,0.00,CLR,OVC,0.04,WeatherDisplay:10.37,2013-02-11 03:08:00,
2013-02-11 14:13:00,72.0,64.4,29.50,NNW,338,3.5,3.5,77,0.00,CLR,OVC,0.04,WeatherDisplay:10.37,2013-02-11 03:13:00,
2013-02-11 14:18:00,72.0,64.0,29.50,ENE,68,4.6,4.6,76,0.00,CLR,OVC,0.04,WeatherDisplay:10.37,2013-02-11 03:18:00,
2013-02-11 14:23:00,72.1,64.2,29.50,WNW,292,0.0,0.0,76,0.00,CLR,OVC,0.04,WeatherDisplay:10.37,2013-02-11 03:23:00,
2013-02-11 14:28:00,72.1,64.2,29.50,East,90,0.0,0.0,76,0.00,CLR,OVC,0.04,WeatherDisplay:10.37,2013-02-11 03:28:00,
2013-02-11 14:33:00,72.0,64.0,29.50,NNW,338,0.0,0.0,76,0.00,CLR,OVC,0.04,WeatherDisplay:10.37,2013-02-11 03:33:00,
2013-02-11 14:38:00,72.0,64.0,29.50,NNE,22,1.2,0.0,76,0.00,CLR,OVC,0.04,WeatherDisplay:10.37,2013-02-11 03:38:00,
2013-02-11 14:43:00,72.0,64.0,29.50,WNW,292,0.0,1.2,76,0.00,CLR,OVC,0.04,WeatherDisplay:10.37,2013-02-11 03:43:00,
2013-02-11 14:48:00,72.1,64.5,29.50,ENE,68,1.6,0.0,77,0.00,CLR,OVC,0.04,WeatherDisplay:10.37,2013-02-11 03:48:00,
2013-02-11 14:53:00,72.1,64.5,29.50,NNW,338,4.3,4.3,77,0.00,CLR,OVC,0.04,WeatherDisplay:10.37,2013-02-11 03:53:00,
2013-02-11 14:58:00,72.1,64.5,29.50,NNW,338,0.0,0.0,77,0.00,CLR,OVC,0.04,WeatherDisplay:10.37,2013-02-11 03:58:00,
2013-02-11 15:03:00,72.3,65.1,29.50,WNW,292,0.0,0.0,78,0.00,CLR,OVC,0.04,WeatherDisplay:10.37,2013-02-11 04:03:00,
2013-02-11 15:08:00,72.3,64.7,29.50,NNW,338,0.0,0.0,77,0.00,CLR,OVC,0.04,WeatherDisplay:10.37,2013-02-11 04:08:00,
2013-02-11 15:13:00,72.1,64.2,29.50,West,270,3.5,3.5,76,0.00,CLR,OVC,0.04,WeatherDisplay:10.37,2013-02-11 04:13:00,
2013-02-11 15:18:00,72.1,64.5,29.50,WNW,292,0.0,0.0,77,0.00,CLR,OVC,0.04,WeatherDisplay:10.37,2013-02-11 04:18:00,
2013-02-11 15:23:00,72.0,64.4,29.50,West,270,0.0,0.0,77,0.00,CLR,OVC,0.04,WeatherDisplay:10.37,2013-02-11 04:23:00,
2013-02-11 15:28:00,72.1,64.5,29.50,SSW,202,2.0,2.0,77,0.00,CLR,OVC,0.04,WeatherDisplay:10.37,2013-02-11 04:28:00,
2013-02-11 15:33:00,72.9,65.2,29.47,West,270,2.3,0.0,77,0.00,CLR,OVC,0.04,WeatherDisplay:10.37,2013-02-11 04:33:00,
2013-02-11 15:38:00,73.2,65.6,29.47,SW,225,2.3,0.0,77,0.00,CLR,OVC,0.04,WeatherDisplay:10.37,2013-02-11 04:38:00,
2013-02-11 15:43:00,72.9,64.8,29.47,WSW,248,3.6,3.6,76,0.00,CLR,OVC,0.04,WeatherDisplay:10.37,2013-02-11 04:43:00,
2013-02-11 15:48:00,72.7,64.3,29.47,South,180,4.6,4.6,75,0.00,CLR,OVC,0.04,WeatherDisplay:10.37,2013-02-11 04:48:00,
2013-02-11 15:53:00,72.3,63.9,29.47,NNE,22,4.6,4.6,75,0.00,CLR,OVC,0.04,WeatherDisplay:10.37,2013-02-11 04:53:00,
2013-02-11 15:58:00,72.3,64.3,29.47,WNW,292,2.0,0.0,76,0.00,CLR,OVC,0.04,WeatherDisplay:10.37,2013-02-11 04:58:00,
2013-02-11 16:00:00,72.3,63.9,29.47,West,270,2.3,2.3,75,0.00,CLR,OVC,0.04,WeatherDisplay:10.37,2013-02-11 05:00:00,
2013-02-11 16:05:00,72.5,64.5,29.47,SSE,158,0.0,0.0,76,0.00,CLR,OVC,0.04,WeatherDisplay:10.37,2013-02-11 05:05:00,
2013-02-11 16:10:00,72.3,63.9,29.47,West,270,1.4,0.0,75,0.00,CLR,OVC,0.04,WeatherDisplay:10.37,2013-02-11 05:10:00,
2013-02-11 16:15:00,72.3,63.9,29.47,NNW,338,0.0,0.0,75,0.00,CLR,OVC,0.04,WeatherDisplay:10.37,2013-02-11 05:15:00,
2013-02-11 16:20:00,72.1,64.2,29.47,NW,315,0.0,0.0,76,0.00,CLR,OVC,0.04,WeatherDisplay:10.37,2013-02-11 05:20:00,
2013-02-11 16:25:00,72.1,63.8,29.47,ENE,68,0.0,0.0,75,0.00,CLR,OVC,0.04,WeatherDisplay:10.37,2013-02-11 05:25:00,
2013-02-11 16:30:00,71.8,63.4,29.47,NNW,338,4.9,4.9,75,0.00,CLR,OVC,0.04,WeatherDisplay:10.37,2013-02-11 05:30:00,
2013-02-11 16:35:00,71.4,63.5,29.47,NNE,22,0.0,0.0,76,0.00,CLR,OVC,0.04,WeatherDisplay:10.37,2013-02-11 05:35:00,
2013-02-11 16:40:00,71.4,63.5,29.47,NNE,22,0.0,0.0,76,0.00,CLR,OVC,0.04,WeatherDisplay:10.37,2013-02-11 05:40:00,
2013-02-11 16:45:00,71.4,64.2,29.47,SE,135,0.0,0.0,78,0.00,CLR,OVC,0.04,WeatherDisplay:10.37,2013-02-11 05:45:00,
2013-02-11 16:50:00,71.2,64.0,29.47,NW,315,2.6,2.6,78,0.00,CLR,OVC,0.04,WeatherDisplay:10.37,2013-02-11 05:50:00,
2013-02-11 16:55:00,71.2,63.7,29.47,West,270,2.3,2.3,77,0.00,CLR,OVC,0.04,WeatherDisplay:10.37,2013-02-11 05:55:00,
2013-02-11 17:00:00,71.2,64.0,29.47,NE,45,0.0,0.0,78,0.00,CLR,OVC,0.04,WeatherDisplay:10.37,2013-02-11 06:00:00,
2013-02-11 17:05:00,71.2,64.0,29.47,WNW,292,0.0,0.0,78,0.00,CLR,OVC,0.04,WeatherDisplay:10.37,2013-02-11 06:05:00,
2013-02-11 17:10:00,71.2,64.4,29.47,WNW,292,2.2,2.2,79,0.00,CLR,OVC,0.04,WeatherDisplay:10.37,2013-02-11 06:10:00,
2013-02-11 17:15:00,71.1,64.2,29.47,ENE,68,0.0,0.0,79,0.00,CLR,OVC,0.04,WeatherDisplay:10.37,2013-02-11 06:15:00,
2013-02-11 17:20:00,71.1,64.2,29.47,NE,45,1.4,0.0,79,0.00,CLR,OVC,0.04,WeatherDisplay:10.37,2013-02-11 06:20:00,
2013-02-11 17:25:00,70.9,64.0,29.47,ESE,112,2.4,2.4,79,0.00,CLR,OVC,0.04,WeatherDisplay:10.37,2013-02-11 06:25:00,
2013-02-11 17:31:00,70.9,64.0,29.47,South,180,2.3,0.0,79,0.00,CLR,OVC,0.04,WeatherDisplay:10.37,2013-02-11 06:31:00,
2013-02-11 17:36:00,70.9,63.7,29.44,WNW,292,2.3,2.3,78,0.00,CLR,OVC,0.04,WeatherDisplay:10.37,2013-02-11 06:36:00,
2013-02-11 17:41:00,70.7,63.5,29.44,NW,315,2.4,0.0,78,0.00,CLR,OVC,0.04,WeatherDisplay:10.37,2013-02-11 06:41:00,
2013-02-11 17:46:00,70.9,63.7,29.44,ENE,68,0.0,0.0,78,0.00,CLR,OVC,0.04,WeatherDisplay:10.37,2013-02-11 06:46:00,
2013-02-11 17:51:00,70.7,63.5,29.47,NE,45,2.3,0.0,78,0.00,CLR,OVC,0.04,WeatherDisplay:10.37,2013-02-11 06:51:00,
2013-02-11 17:56:00,70.5,63.3,29.47,NNE,22,0.0,0.0,78,0.00,CLR,OVC,0.04,WeatherDisplay:10.37,2013-02-11 06:56:00,
2013-02-11 18:01:00,70.5,63.3,29.47,NW,315,0.0,0.0,78,0.00,CLR,OVC,0.04,WeatherDisplay:10.37,2013-02-11 07:01:00,
2013-02-11 18:06:00,70.7,63.5,29.47,NW,315,0.0,0.0,78,0.00,CLR,OVC,0.04,WeatherDisplay:10.37,2013-02-11 07:06:00,
2013-02-11 18:11:00,70.5,63.3,29.47,NE,45,2.3,2.3,78,0.00,CLR,OVC,0.04,WeatherDisplay:10.37,2013-02-11 07:11:00,
2013-02-11 18:16:00,70.7,63.5,29.44,North,0,1.2,1.2,78,0.00,CLR,OVC,0.04,WeatherDisplay:10.37,2013-02-11 07:16:00,
2013-02-11 18:21:00,70.5,63.3,29.44,West,270,0.0,0.0,78,0.00,CLR,OVC,0.04,WeatherDisplay:10.37,2013-02-11 07:21:00,
2013-02-11 18:26:00,70.2,63.0,29.44,NW,315,0.0,0.0,78,0.00,CLR,OVC,0.04,WeatherDisplay:10.37,2013-02-11 07:26:00,
2013-02-11 18:31:00,70.2,63.0,29.44,NW,315,0.0,0.0,78,0.00,CLR,OVC,0.04,WeatherDisplay:10.37,2013-02-11 07:31:00,
2013-02-11 18:36:00,70.2,63.0,29.47,NW,315,0.0,0.0,78,0.00,CLR,OVC,0.04,WeatherDisplay:10.37,2013-02-11 07:36:00,
2013-02-11 18:41:00,70.2,63.3,29.47,South,180,1.2,0.0,79,0.00,CLR,OVC,0.04,WeatherDisplay:10.37,2013-02-11 07:41:00,
2013-02-11 18:46:00,70.0,63.2,29.47,East,90,0.0,0.0,79,0.00,CLR,OVC,0.04,WeatherDisplay:10.37,2013-02-11 07:46:00,
2013-02-11 18:51:00,70.0,63.2,29.47,NW,315,0.0,0.0,79,0.00,CLR,OVC,0.04,WeatherDisplay:10.37,2013-02-11 07:51:00,
2013-02-11 18:56:00,70.0,62.8,29.47,SE,135,0.0,0.0,78,0.00,CLR,OVC,0.04,WeatherDisplay:10.37,2013-02-11 07:56:00,
2013-02-11 19:01:00,70.0,63.2,29.47,NNW,338,2.3,2.3,79,0.00,CLR,OVC,0.04,WeatherDisplay:10.37,2013-02-11 08:01:00,
2013-02-11 19:06:00,69.8,63.0,29.47,West,270,0.0,0.0,79,0.00,CLR,OVC,0.04,WeatherDisplay:10.37,2013-02-11 08:06:00,
2013-02-11 19:11:00,70.0,63.2,29.47,West,270,2.3,2.3,79,0.00,CLR,OVC,0.04,WeatherDisplay:10.37,2013-02-11 08:11:00,
2013-02-11 19:16:00,69.8,63.0,29.47,West,270,0.0,0.0,79,0.00,CLR,OVC,0.04,WeatherDisplay:10.37,2013-02-11 08:16:00,
2013-02-11 19:21:00,69.8,63.3,29.47,NNW,338,2.3,2.3,80,0.00,CLR,OVC,0.04,WeatherDisplay:10.37,2013-02-11 08:21:00,
2013-02-11 19:26:00,69.8,63.3,29.47,SSW,202,0.0,0.0,80,0.00,CLR,OVC,0.04,WeatherDisplay:10.37,2013-02-11 08:26:00,
2013-02-11 19:31:00,69.6,63.5,29.50,West,270,0.0,0.0,81,0.00,CLR,OVC,0.04,WeatherDisplay:10.37,2013-02-11 08:31:00,
2013-02-11 19:36:00,69.6,63.2,29.50,WNW,292,2.3,2.3,80,0.00,CLR,OVC,0.04,WeatherDisplay:10.37,2013-02-11 08:36:00,
2013-02-11 19:41:00,69.6,63.2,29.50,West,270,0.0,0.0,80,0.00,CLR,OVC,0.04,WeatherDisplay:10.37,2013-02-11 08:41:00,
2013-02-11 19:46:00,69.4,63.0,29.50,WSW,248,0.0,0.0,80,0.00,CLR,OVC,0.04,WeatherDisplay:10.37,2013-02-11 08:46:00,
2013-02-11 19:51:00,69.4,63.0,29.50,WSW,248,3.5,3.5,80,0.00,CLR,OVC,0.04,WeatherDisplay:10.37,2013-02-11 08:51:00,
2013-02-11 19:56:00,69.4,63.4,29.50,WNW,292,2.3,2.3,81,0.00,CLR,OVC,0.04,WeatherDisplay:10.37,2013-02-11 08:56:00,
2013-02-11 20:01:00,69.3,63.2,29.53,WNW,292,2.3,2.3,81,0.00,CLR,OVC,0.04,WeatherDisplay:10.37,2013-02-11 09:01:00,
2013-02-11 20:06:00,69.1,63.0,29.53,West,270,2.3,2.3,81,0.00,CLR,OVC,0.04,WeatherDisplay:10.37,2013-02-11 09:06:00,
2013-02-11 20:11:00,69.1,63.0,29.53,West,270,2.3,2.3,81,0.00,CLR,OVC,0.04,WeatherDisplay:10.37,2013-02-11 09:11:00,
2013-02-11 20:16:00,69.1,63.4,29.50,West,270,0.0,0.0,82,0.00,CLR,OVC,0.04,WeatherDisplay:10.37,2013-02-11 09:16:00,
2013-02-11 20:21:00,68.9,62.8,29.50,WSW,248,0.0,0.0,81,0.00,CLR,OVC,0.04,WeatherDisplay:10.37,2013-02-11 09:21:00,
2013-02-11 20:26:00,69.1,63.4,29.50,WNW,292,2.6,2.6,82,0.00,CLR,OVC,0.04,WeatherDisplay:10.37,2013-02-11 09:26:00,
2013-02-11 20:31:00,68.9,62.8,29.50,West,270,0.0,0.0,81,0.00,CLR,OVC,0.04,WeatherDisplay:10.37,2013-02-11 09:31:00,
2013-02-11 20:36:00,68.9,62.8,29.50,SW,225,0.0,0.0,81,0.00,CLR,OVC,0.04,WeatherDisplay:10.37,2013-02-11 09:36:00,
2013-02-11 20:41:00,68.9,62.8,29.50,SW,225,2.3,0.0,81,0.00,CLR,OVC,0.04,WeatherDisplay:10.37,2013-02-11 09:41:00,
2013-02-11 20:46:00,68.9,62.8,29.50,WSW,248,0.0,0.0,81,0.00,CLR,OVC,0.04,WeatherDisplay:10.37,2013-02-11 09:46:00,
2013-02-11 20:51:00,68.9,63.2,29.50,WNW,292,0.0,0.0,82,0.00,CLR,OVC,0.04,WeatherDisplay:10.37,2013-02-11 09:51:00,
2013-02-11 20:56:00,68.9,63.2,29.50,WSW,248,0.0,0.0,82,0.00,CLR,OVC,0.04,WeatherDisplay:10.37,2013-02-11 09:56:00,
2013-02-11 21:01:00,68.9,63.2,29.50,WNW,292,2.3,2.3,82,0.00,CLR,OVC,0.04,WeatherDisplay:10.37,2013-02-11 10:01:00,
2013-02-11 21:06:00,68.9,63.2,29.50,West,270,0.0,0.0,82,0.00,CLR,OVC,0.04,WeatherDisplay:10.37,2013-02-11 10:06:00,
2013-02-11 21:11:00,68.7,62.7,29.50,West,270,3.5,3.5,81,0.00,CLR,OVC,0.04,WeatherDisplay:10.37,2013-02-11 10:11:00,
2013-02-11 21:16:00,68.7,63.0,29.50,WNW,292,2.3,2.4,82,0.00,CLR,OVC,0.04,WeatherDisplay:10.37,2013-02-11 10:16:00,
2013-02-11 21:21:00,68.7,63.0,29.50,West,270,0.0,0.0,82,0.00,CLR,OVC,0.04,WeatherDisplay:10.37,2013-02-11 10:21:00,
2013-02-11 21:26:00,68.5,62.8,29.50,NW,315,0.0,0.0,82,0.00,CLR,OVC,0.04,WeatherDisplay:10.37,2013-02-11 10:26:00,
2013-02-11 21:31:00,68.5,62.8,29.50,WNW,292,0.0,0.0,82,0.00,CLR,OVC,0.04,WeatherDisplay:10.37,2013-02-11 10:31:00,
2013-02-11 21:36:00,68.7,63.0,29.50,West,270,1.2,0.0,82,0.00,CLR,OVC,0.04,WeatherDisplay:10.37,2013-02-11 10:36:00,
2013-02-11 21:41:00,68.5,62.8,29.50,WNW,292,0.0,0.0,82,0.00,CLR,OVC,0.04,WeatherDisplay:10.37,2013-02-11 10:41:00,
2013-02-11 21:46:00,68.5,62.5,29.50,West,270,2.3,0.0,81,0.00,CLR,OVC,0.04,WeatherDisplay:10.37,2013-02-11 10:46:00,
2013-02-11 21:51:00,68.5,62.8,29.50,SW,225,2.2,0.0,82,0.00,CLR,OVC,0.04,WeatherDisplay:10.37,2013-02-11 10:51:00,
2013-02-11 21:56:00,68.5,62.8,29.50,WNW,292,2.3,0.0,82,0.00,CLR,OVC,0.04,WeatherDisplay:10.37,2013-02-11 10:56:00,
2013-02-11 22:01:00,68.5,62.8,29.53,WSW,248,2.3,2.3,82,0.00,CLR,OVC,0.04,WeatherDisplay:10.37,2013-02-11 11:01:00,
2013-02-11 22:06:00,68.5,62.8,29.53,WNW,292,2.9,2.9,82,0.00,CLR,OVC,0.04,WeatherDisplay:10.37,2013-02-11 11:06:00,
2013-02-11 22:11:00,68.5,62.8,29.53,SW,225,2.9,2.9,82,0.00,CLR,OVC,0.04,WeatherDisplay:10.37,2013-02-11 11:11:00,
2013-02-11 22:16:00,68.5,62.8,29.53,West,270,1.2,0.0,82,0.00,CLR,OVC,0.04,WeatherDisplay:10.37,2013-02-11 11:16:00,
2013-02-11 22:21:00,68.5,63.2,29.53,West,270,0.0,0.0,83,0.00,CLR,OVC,0.04,WeatherDisplay:10.37,2013-02-11 11:21:00,
2013-02-11 22:26:00,68.5,63.2,29.53,WNW,292,2.3,2.3,83,0.00,CLR,OVC,0.04,WeatherDisplay:10.37,2013-02-11 11:26:00,
2013-02-11 22:31:00,68.4,62.6,29.53,West,270,2.3,2.3,82,0.00,CLR,OVC,0.04,WeatherDisplay:10.37,2013-02-11 11:31:00,
2013-02-11 22:36:00,68.4,62.6,29.53,West,270,2.3,2.3,82,0.00,CLR,OVC,0.04,WeatherDisplay:10.37,2013-02-11 11:36:00,
2013-02-11 22:41:00,68.5,63.2,29.53,West,270,0.0,0.0,83,0.00,CLR,OVC,0.04,WeatherDisplay:10.37,2013-02-11 11:41:00,
2013-02-11 22:46:00,68.4,62.6,29.53,West,270,2.3,0.0,82,0.00,CLR,OVC,0.04,WeatherDisplay:10.37,2013-02-11 11:46:00,
2013-02-11 22:51:00,68.4,62.6,29.53,West,270,1.2,0.0,82,0.00,CLR,OVC,0.04,WeatherDisplay:10.37,2013-02-11 11:51:00,
2013-02-11 22:56:00,68.4,63.0,29.53,SSE,158,0.0,0.0,83,0.00,CLR,OVC,0.04,WeatherDisplay:10.37,2013-02-11 11:56:00,
2013-02-11 23:01:00,68.4,63.0,29.53,WNW,292,0.0,0.0,83,0.00,CLR,OVC,0.04,WeatherDisplay:10.37,2013-02-11 12:01:00,
2013-02-11 23:06:00,68.4,63.3,29.53,WNW,292,0.0,0.0,84,0.00,CLR,OVC,0.04,WeatherDisplay:10.37,2013-02-11 12:06:00,
2013-02-11 23:11:00,68.4,63.3,29.53,West,270,0.0,0.0,84,0.00,CLR,OVC,0.04,WeatherDisplay:10.37,2013-02-11 12:11:00,
2013-02-11 23:16:00,68.4,63.3,29.53,West,270,1.2,0.0,84,0.00,CLR,OVC,0.04,WeatherDisplay:10.37,2013-02-11 12:16:00,
2013-02-11 23:21:00,68.4,63.3,29.53,West,270,0.0,0.0,84,0.00,CLR,OVC,0.04,WeatherDisplay:10.37,2013-02-11 12:21:00,
2013-02-11 23:27:00,68.4,63.3,29.53,WNW,292,1.6,1.6,84,0.00,CLR,OVC,0.04,WeatherDisplay:10.37,2013-02-11 12:27:00,
2013-02-11 23:32:00,68.4,63.0,29.53,SW,225,0.0,0.0,83,0.00,CLR,OVC,0.04,WeatherDisplay:10.37,2013-02-11 12:32:00,
2013-02-11 23:37:00,68.4,63.3,29.53,WSW,248,3.5,0.0,84,0.00,CLR,OVC,0.04,WeatherDisplay:10.37,2013-02-11 12:37:00,
2013-02-11 23:42:00,68.4,63.3,29.53,West,270,2.3,2.3,84,0.00,CLR,OVC,0.04,WeatherDisplay:10.37,2013-02-11 12:42:00,
2013-02-11 23:47:00,68.2,63.2,29.53,WNW,292,0.0,0.0,84,0.00,CLR,OVC,0.04,WeatherDisplay:10.37,2013-02-11 12:47:00,
2013-02-11 23:52:00,68.2,63.2,29.53,West,270,0.0,0.0,84,0.00,CLR,OVC,0.04,WeatherDisplay:10.37,2013-02-11 12:52:00,
2013-02-11 23:57:00,68.2,63.2,29.53,NW,315,0.0,0.0,84,0.00,CLR,OVC,0.04,WeatherDisplay:10.37,2013-02-11 12:57:00,